Weather History for Golovin, AK

Change the Weather History Date:

Monday, September 2, 2013

  Actual Average Record
Temperature  
Mean Temperature 48 °F -  
Max Temperature 53 °F - - ()
Min Temperature 44 °F - - ()
Degree Days  
Heating Degree Days 16    
Moisture  
Dew Point 44 °F    
Average Humidity 84    
Maximum Humidity 94    
Minimum Humidity 66    
Precipitation  
Precipitation 0.22 in - - ()
Sea Level Pressure  
Sea Level Pressure 29.23 in    
Wind  
Wind Speed 14 mph (ENE)    
Max Wind Speed 24 mph    
Max Gust Speed 32 mph    
Visibility 10 miles    
Events      
T = Trace of Precipitation, MM = Missing Value Source: NWS Daily Summary

Daily Weather History Graph

Daily Weather History Graph

Search for Another Location

Airport:

Trip Planner

Search our weather history database for the weather conditions in past years. The results will help you decide how hot, cold, wet, or windy it might be!

Date:

Astronomy

Sep. 02, 2013 Rise Set
Actual Time 7:37 AM AKDT 10:03 PM AKDT
Civil Twilight 6:43 AM AKDT 10:56 PM AKDT
Nautical Twilight 5:29 AM AKDT 12:10 AM AKDT
Astronomical Twilight 3:24 AM AKDT 2:36 AM AKDT
Moon 4:30 AM AKDT (9/2) 8:45 PM AKDT (9/2)
Length of Visible Light 16h 13m
Length of Day
14h 26m
Waning Crescent, 7% of the Moon is Illuminated
Sep 2
Waning Crescent
Sep 5
New
Sep 12
First Quarter
Sep 19
Full
Sep 26
Last Quarter

Hourly Weather History & Observations

Time (AKDT) Temp. Windchill Dew Point Humidity Pressure Visibility Wind Dir Wind Speed Gust Speed Precip Events Conditions
12:16 AM 48.2 °F - 39.2 °F 71% 29.48 in 10.0 mi NE 13.8 mph 23.0 mph N/A   Overcast
12:36 AM 48.2 °F - 39.2 °F 71% 29.47 in 10.0 mi ENE 20.7 mph 27.6 mph N/A   Mostly Cloudy
12:56 AM 48.2 °F - 39.2 °F 71% 29.48 in 10.0 mi NNE 11.5 mph 25.3 mph N/A   Partly Cloudy
1:16 AM 46.4 °F 40.1 °F 39.2 °F 76% 29.47 in 10.0 mi NE 15.0 mph 20.7 mph N/A   Clear
1:36 AM 46.4 °F 39.5 °F 39.2 °F 76% 29.46 in 10.0 mi NE 17.3 mph 21.9 mph N/A   Clear
1:56 AM 48.2 °F - 39.2 °F 71% 29.45 in 10.0 mi NE 16.1 mph 28.8 mph N/A   Clear
2:16 AM 48.2 °F - 37.4 °F 66% 29.46 in 10.0 mi NE 13.8 mph 24.2 mph N/A   Clear
2:36 AM 46.4 °F 41.9 °F 37.4 °F 71% 29.45 in 10.0 mi NE 9.2 mph - N/A   Mostly Cloudy
2:56 AM 46.4 °F 42.9 °F 37.4 °F 71% 29.44 in 10.0 mi North 6.9 mph - N/A   Overcast
3:16 AM 46.4 °F 43.5 °F 37.4 °F 71% 29.43 in 10.0 mi NNE 5.8 mph - N/A   Overcast
3:36 AM 46.4 °F 40.7 °F 37.4 °F 71% 29.42 in 10.0 mi NE 12.7 mph 17.3 mph N/A   Overcast
3:56 AM 46.4 °F 41.9 °F 37.4 °F 71% 29.41 in 10.0 mi NNE 9.2 mph 23.0 mph N/A   Overcast
4:16 AM 46.4 °F 41.1 °F 37.4 °F 71% 29.40 in 10.0 mi NE 11.5 mph 18.4 mph N/A   Overcast
4:36 AM 46.4 °F 40.4 °F 37.4 °F 71% 29.39 in 10.0 mi NE 13.8 mph 20.7 mph N/A   Mostly Cloudy
4:56 AM 46.4 °F 41.1 °F 37.4 °F 71% 29.38 in 10.0 mi NNE 11.5 mph 17.3 mph N/A   Overcast
5:16 AM 46.4 °F 42.4 °F 37.4 °F 71% 29.37 in 10.0 mi North 8.1 mph - N/A   Overcast
5:36 AM 46.4 °F 41.5 °F 37.4 °F 71% 29.36 in 10.0 mi NNE 10.4 mph - N/A   Overcast
5:56 AM 46.4 °F 41.9 °F 37.4 °F 71% 29.36 in 10.0 mi NE 9.2 mph - N/A   Overcast
6:16 AM 46.4 °F 41.1 °F 37.4 °F 71% 29.36 in 10.0 mi NNE 11.5 mph - N/A   Overcast
6:36 AM 46.4 °F 42.4 °F 41.0 °F 81% 29.35 in 10.0 mi North 8.1 mph - N/A   Overcast
6:56 AM 46.4 °F 43.5 °F 41.0 °F 81% 29.35 in 10.0 mi North 5.8 mph - 0.02 in   Overcast
7:16 AM 44.6 °F 38.4 °F 41.0 °F 87% 29.33 in 10.0 mi NE 12.7 mph 18.4 mph 0.02 in   Overcast
7:36 AM 46.4 °F 40.7 °F 41.0 °F 81% 29.31 in 10.0 mi NNE 12.7 mph 19.6 mph 0.04 in   Overcast
7:56 AM 46.4 °F 40.4 °F 42.8 °F 87% 29.29 in 10.0 mi NNE 13.8 mph 18.4 mph 0.05 in   Overcast
8:16 AM 46.4 °F 39.8 °F 42.8 °F 87% 29.28 in 10.0 mi NE 16.1 mph 26.5 mph 0.01 in   Overcast
8:36 AM 46.4 °F 39.0 °F 42.8 °F 87% 29.27 in 10.0 mi NE 19.6 mph 24.2 mph 0.01 in   Overcast
8:56 AM 46.4 °F 40.1 °F 42.8 °F 87% 29.27 in 10.0 mi NNE 15.0 mph 23.0 mph 0.02 in   Overcast
9:16 AM 46.4 °F 39.8 °F 42.8 °F 87% 29.26 in 10.0 mi NE 16.1 mph 26.5 mph 0.01 in   Overcast
9:36 AM 46.4 °F 39.2 °F 42.8 °F 87% 29.25 in 10.0 mi NE 18.4 mph 27.6 mph 0.03 in   Overcast
9:56 AM 46.4 °F 38.7 °F 42.8 °F 87% 29.24 in 8.0 mi NE 20.7 mph 27.6 mph 0.05 in   Overcast
10:16 AM 46.4 °F 39.2 °F 42.8 °F 87% 29.23 in 10.0 mi NE 18.4 mph 28.8 mph 0.02 in   Overcast
10:36 AM 46.4 °F 40.1 °F 42.8 °F 87% 29.22 in 10.0 mi NE 15.0 mph 26.5 mph 0.03 in   Overcast
10:56 AM 46.4 °F 38.7 °F 42.8 °F 87% 29.21 in 10.0 mi NE 20.7 mph 27.6 mph 0.05 in   Overcast
11:16 AM 46.4 °F 38.5 °F 42.8 °F 87% 29.21 in 10.0 mi ENE 21.9 mph 32.2 mph 0.01 in   Overcast
11:36 AM 46.4 °F 38.7 °F 42.8 °F 87% 29.19 in 10.0 mi NE 20.7 mph 29.9 mph 0.01 in   Mostly Cloudy
11:56 AM 46.4 °F 38.1 °F 42.8 °F 87% 29.19 in 10.0 mi ENE 24.2 mph 29.9 mph 0.02 in   Overcast
12:16 PM 46.4 °F 38.3 °F 42.8 °F 87% 29.18 in 10.0 mi ENE 23.0 mph 29.9 mph N/A   Overcast
12:36 PM 46.4 °F 38.3 °F 42.8 °F 87% 29.17 in 10.0 mi East 23.0 mph 28.8 mph N/A   Overcast
12:56 PM 46.4 °F 38.1 °F 44.6 °F 93% 29.17 in 7.0 mi ENE 24.2 mph 32.2 mph N/A   Overcast
1:16 PM 46.4 °F 38.5 °F 44.6 °F 93% 29.16 in 9.0 mi ENE 21.9 mph 28.8 mph N/A   Overcast
1:36 PM 48.2 °F - 44.6 °F 87% 29.16 in 10.0 mi ENE 21.9 mph 28.8 mph N/A   Overcast
1:56 PM 48.2 °F - 46.4 °F 93% 29.15 in 10.0 mi East 21.9 mph 26.5 mph N/A   Overcast
2:16 PM 48.2 °F - 44.6 °F 87% 29.15 in 10.0 mi East 20.7 mph 29.9 mph N/A   Overcast
2:36 PM 48.2 °F - 44.6 °F 87% 29.14 in 10.0 mi East 20.7 mph 29.9 mph N/A   Overcast
2:56 PM 48.2 °F - 46.4 °F 93% 29.13 in 10.0 mi East 19.6 mph 28.8 mph N/A   Overcast
3:16 PM 50.0 °F - 46.4 °F 87% 29.12 in 10.0 mi East 19.6 mph 25.3 mph N/A   Overcast
3:36 PM 50.0 °F - 46.4 °F 87% 29.12 in 10.0 mi East 17.3 mph 24.2 mph N/A   Overcast
3:56 PM 50.0 °F - 46.4 °F 87% 29.12 in 10.0 mi East 16.1 mph 26.5 mph N/A   Overcast
4:16 PM 50.0 °F - 46.4 °F 87% 29.12 in 10.0 mi East 18.4 mph 23.0 mph 0.01 in   Overcast
4:36 PM 51.8 °F - 46.4 °F 82% 29.11 in 10.0 mi East 16.1 mph - 0.01 in   Overcast
4:56 PM 51.8 °F - 48.2 °F 88% 29.11 in 10.0 mi East 16.1 mph - 0.01 in   Overcast
5:16 PM 51.8 °F - 48.2 °F 88% 29.11 in 8.0 mi East 13.8 mph - N/A   Overcast
5:36 PM 51.8 °F - 48.2 °F 88% 29.11 in 10.0 mi East 15.0 mph - N/A   Mostly Cloudy
5:56 PM 53.6 °F - 50.0 °F 88% 29.11 in 10.0 mi ESE 13.8 mph 19.6 mph N/A   Overcast
6:16 PM 53.6 °F - 50.0 °F 88% 29.10 in 10.0 mi East 12.7 mph 18.4 mph N/A   Overcast
6:36 PM 53.6 °F - 50.0 °F 88% 29.10 in 10.0 mi ESE 12.7 mph - N/A   Overcast
6:56 PM 53.6 °F - 50.0 °F 88% 29.10 in 8.0 mi ESE 13.8 mph - N/A   Mostly Cloudy
7:16 PM 51.8 °F - 50.0 °F 94% 29.10 in 9.0 mi ESE 12.7 mph - N/A   Overcast
7:36 PM 53.6 °F - 50.0 °F 88% 29.09 in 10.0 mi ESE 12.7 mph - N/A   Overcast
7:56 PM 53.6 °F - 51.8 °F 94% 29.10 in 10.0 mi ESE 11.5 mph - N/A   Overcast
8:16 PM 53.6 °F - 51.8 °F 94% 29.10 in 10.0 mi SE 12.7 mph - N/A   Overcast
8:36 PM 53.6 °F - 51.8 °F 94% 29.10 in 10.0 mi SE 8.1 mph - N/A   Overcast
8:56 PM 53.6 °F - 50.0 °F 88% 29.10 in 10.0 mi ESE 10.4 mph - N/A   Mostly Cloudy
9:16 PM 53.6 °F - 50.0 °F 88% 29.09 in 10.0 mi ESE 10.4 mph - N/A   Mostly Cloudy
9:36 PM 53.6 °F - 50.0 °F 88% 29.10 in 10.0 mi ESE 10.4 mph - N/A   Overcast
9:56 PM 53.6 °F - 50.0 °F 88% 29.10 in 10.0 mi ESE 8.1 mph - N/A   Overcast
10:16 PM 53.6 °F - 50.0 °F 88% 29.11 in 10.0 mi ESE 8.1 mph - N/A   Mostly Cloudy
10:36 PM 53.6 °F - 50.0 °F 88% 29.11 in 10.0 mi East 5.8 mph - N/A   Overcast
10:56 PM 53.6 °F - 50.0 °F 88% 29.11 in 10.0 mi SE 4.6 mph - N/A   Overcast
11:16 PM 53.6 °F - 50.0 °F 88% 29.11 in 10.0 mi ESE 3.5 mph - N/A   Overcast
11:36 PM 53.6 °F - 50.0 °F 88% 29.11 in 10.0 mi ESE 8.1 mph - N/A   Overcast
11:56 PM 53.6 °F - 50.0 °F 88% 29.11 in 10.0 mi East 9.2 mph - N/A   Overcast